Погода в Омуте

Япония     33°02′41″N   130°27′39″E
темп.,
°C
ветер,
м/с
пор.,
м/с
влажн.,
%
обл.,
%
осадки,
мм/ч
давл.,
гПа
погр.,
м
16 апреля, пт
пт1600:00+14вюв11670 0.0 101944
03:00+13в01690 0.0 101940
06:00+12вюв226876 0.0 101864
09:00+14ю1162100 0.1 1019214
12:00+15ссз1154100 0.0 1019273
15:00+16зюз1152100 0.1 1018249
18:00+13св1175100 0.8 101897
21:00+14св1177100 1.0 101942
17 апреля, сб
сб1700:00+14в1178100 0.0 101729
03:00+14з1192100 1.7 101682
06:00+13ссз2298100 8.4 1016137
09:00+14в1198100 19.5 1016114
12:00+15юз2388100 4.5 1015497
15:00+19зюз5865100 4.9 10131222
18:00+16з7972100 0.2 10141042
21:00+13зсз6104099 0.2 10161190
18 апреля, вс
вс1800:00+11зсз6104811 0.0 10161137
03:00+10з49536 0.0 1016936
06:00+10з510639 0.0 10161107
09:00+12зсз6105448 0.1 10171754
12:00+16зсз711415 0.0 10162029
15:00+16сз811425 0.0 10151900
18:00+15сз69444 0.0 10161735
21:00+13зсз37540 0.0 1017410
19 апреля, пн
пн1900:00+12ююз126029 0.0 1017126
03:00+11юв12660 0.0 1017124
06:00+10вюв12690 0.0 101897
09:00+14ю12530 0.0 1018702
12:00+17юз23390 0.0 10171001
15:00+19ююз23350 0.0 10151074
18:00+17ююв12470 0.0 1016244
21:00+15ссв00560 0.0 101818
20 апреля, вт
вт2000:00+13ссв11580 0.0 101842
03:00+12вюв11653 0.0 101938
06:00+11в11680 0.0 102039
09:00+16с11460 0.0 1021314
12:00+21зсз22300 0.0 1020718
15:00+23зсз22215 0.0 10181105
18:00+21з22372 0.0 101956
21:00+18юв11520 0.0 102112